Voltar ao catálogo

STARLINK-35252

AtivoComunicaçõesVLEO
NORAD 65850·PAYLOAD·🇺🇸 United States

Lançado Sep 29, 2025 de Vandenberg Space Force Base

Loading…

Próximas Passagens (próximas 24 horas)

TLE

AtualizadoSource: CelesTrak SupGP

Época: Sep 14, 2026, 21:35 UTC

1 65850C 25221AD  26257.89979167  .00039757  00000+0  11748-2 0  2574
2 65850  53.1564 288.0091 0001144  95.2507 245.8503 15.34366848    12

Acompanhe STARLINK-35252 em tempo real com AllMySat

Download on the App Store